Satellite: SICH-1
Catalog number: 23657
Epoch time: 07340.11090822
Element set: 243
Inclination: 082.5275 deg
RA of node: 277.0903 deg
Eccentricity: 0.0025510
Arg of perigee: 040.9807 deg
Mean anomaly: 319.3262 deg
Mean motion: 14.81530866 rev/day
Decay rate: 3.3e-07 rev/day^2
Epoch rev: 66148
Checksum: 278
Satellite: NOAA-14
Catalog number: 23455
Epoch time: 07340.41514466
Element set: 925
Inclination: 098.9720 deg
RA of node: 047.3471 deg
Eccentricity: 0.0009004
Arg of perigee: 337.9360 deg
Mean anomaly: 022.1433 deg
Mean motion: 14.13729147 rev/day
Decay rate: -2.29e-06 rev/day^2
Epoch rev: 66697
Checksum: 302
Satellite: OKEAN-4
Catalog number: 23317
Epoch time: 07339.74950516
Element set: 0443
Inclination: 082.5373 deg
RA of node: 136.4902 deg
Eccentricity: 0.0023567
Arg of perigee: 050.5415 deg
Mean anomaly: 309.7876 deg
Mean motion: 14.82556774 rev/day
Decay rate: 2.54e-06 rev/day^2
Epoch rev: 70947
Checksum: 323
Satellite: MET-2/21
Catalog number: 22782
Epoch time: 07340.11709808
Element set: 3
Inclination: 082.5467 deg
RA of node: 265.5107 deg
Eccentricity: 0.0023917
Arg of perigee: 112.5341 deg
Mean anomaly: 247.8361 deg
Mean motion: 13.83622047 rev/day
Decay rate: 1.6e-07 rev/day^2
Epoch rev: 72029
Checksum: 279
Satellite: MET-3/5
Catalog number: 21655
Epoch time: 07339.93948895
Element set: 0377
Inclination: 082.5558 deg
RA of node: 241.5880 deg
Eccentricity: 0.0014034
Arg of perigee: 134.5045 deg
Mean anomaly: 225.7229 deg
Mean motion: 13.17012343 rev/day
Decay rate: 5.1e-07 rev/day^2
Epoch rev: 78401
Checksum: 307
Satellite: NOAA-12
Catalog number: 21263
Epoch time: 07340.33858123
Element set: 454
Inclination: 098.7619 deg
RA of node: 337.3715 deg
Eccentricity: 0.0012044
Arg of perigee: 332.3814 deg
Mean anomaly: 027.6747 deg
Mean motion: 14.25505326 rev/day
Decay rate: -8.6e-07 rev/day^2
Epoch rev: 86077
Checksum: 301
Satellite: NOAA-11
Catalog number: 19531
Epoch time: 07340.18925645
Element set: 948
Inclination: 098.8072 deg
RA of node: 067.1743 deg
Eccentricity: 0.0010764
Arg of perigee: 262.1282 deg
Mean anomaly: 097.8670 deg
Mean motion: 14.14856798 rev/day
Decay rate: -1.69e-06 rev/day^2
Epoch rev: 99047
Checksum: 345
Satellite: NOAA-10
Catalog number: 16969
Epoch time: 07340.46971406
Element set: 918
Inclination: 098.7380 deg
RA of node: 357.6887 deg
Eccentricity: 0.0012831
Arg of perigee: 029.4293 deg
Mean anomaly: 330.7615 deg
Mean motion: 14.27342755 rev/day
Decay rate: -6.7e-07 rev/day^2
Epoch rev: 10380
Checksum: 326
Satellite: NOAA-10
Catalog number: 16969
Epoch time: 07340.46971406
Element set: 918
Inclination: 098.7380 deg
RA of node: 357.6887 deg
Eccentricity: 0.0012831
Arg of perigee: 029.4293 deg
Mean anomaly: 330.7615 deg
Mean motion: 14.27342755 rev/day
Decay rate: -6.7e-07 rev/day^2
Epoch rev: 10380
Checksum: 326
/EX
SB KEPS @ AMSAT $ORB07340.M
Orbital Elements 07340.MISC
HR AMSAT ORBITAL ELEMENTS FOR MANNED AND MISCELLANEOUS SATELLITES
FROM WA5QGD FORT WORTH,TX December 6, 2007
Send Subscribe/unsubscribe to KEPS at
http://www.amsat.org/mailman/listinfo/keps
BID: ORB07340.M
TO ALL RADIO AMATEURS BT
Satellite: CAPE1
Catalog number: 31130
Epoch time: 07340.75008132
Element set: 180
Inclination: 098.0665 deg
RA of node: 047.1296 deg
Eccentricity: 0.0102254
Arg of perigee: 212.4505 deg
Mean anomaly: 147.0377 deg
Mean motion: 14.51909108 rev/day
Decay rate: 1.1e-07 rev/day^2
Epoch rev: 3365
Checksum: 250
Satellite: MAST
Catalog number: 31126
Epoch time: 07340.23693270
Element set: 200
Inclination: 098.0659 deg
RA of node: 047.1791 deg
Eccentricity: 0.0094385
Arg of perigee: 212.4124 deg
Mean anomaly: 147.1278 deg
Mean motion: 14.53381510 rev/day
Decay rate: 4.7e-07 rev/day^2
Epoch rev: 3384
Checksum: 272
Satellite: FALCON
Catalog number: 30776
Epoch time: 07340.85997362
Element set: 198
Inclination: 035.4340 deg
RA of node: 245.8239 deg
Eccentricity: 0.0000471
Arg of perigee: 205.2524 deg
Mean anomaly: 154.8171 deg
Mean motion: 15.02814786 rev/day
Decay rate: 2.65e-06 rev/day^2
Epoch rev: 4104
Checksum: 288
Satellite: FCAL
Catalog number: 29667
Epoch time: 07340.80930819
Element set: 561
Inclination: 051.6315 deg
RA of node: 264.5066 deg
Eccentricity: 0.0008221
Arg of perigee: 309.8557 deg
Mean anomaly: 050.1659 deg
Mean motion: 15.96035780 rev/day
Decay rate: 2.7721e-04 rev/day^2
Epoch rev: 5549
Checksum: 313
Satellite: FCAL
Catalog number: 29667
Epoch time: 07340.80930819
Element set: 561
Inclination: 051.6315 deg
RA of node: 264.5066 deg
Eccentricity: 0.0008221
Arg of perigee: 309.8557 deg
Mean anomaly: 050.1659 deg
Mean motion: 15.96035780 rev/day
Decay rate: 2.7721e-04 rev/day^2
Epoch rev: 5549
Checksum: 313
Satellite: FCAL
Catalog number: 29667
Epoch time: 07340.80930819
Element set: 561
Inclination: 051.6315 deg
RA of node: 264.5066 deg
Eccentricity: 0.0008221
Arg of perigee: 309.8557 deg
Mean anomaly: 050.1659 deg
Mean motion: 15.96035780 rev/day
Decay rate: 2.7721e-04 rev/day^2
Epoch rev: 5549
Checksum: 313
Satellite: NCUBE2
Catalog number: 28897
Epoch time: 07339.69790060
Element set: 0420
Inclination: 098.1147 deg
RA of node: 232.9699 deg
Eccentricity: 0.0016639
Arg of perigee: 301.1515 deg
Mean anomaly: 058.8052 deg
Mean motion: 14.59778142 rev/day
Decay rate: 1.63e-06 rev/day^2
Epoch rev: 10439
Checksum: 324
Satellite: CO-58
Catalog number: 28895
Epoch time: 07340.73920853
Element set: 891
Inclination: 098.1158 deg
RA of node: 234.0454 deg
Eccentricity: 0.0017067
Arg of perigee: 296.1732 deg
Mean anomaly: 063.7736 deg
Mean motion: 14.59611711 rev/day
Decay rate: 1.16e-06 rev/day^2
Epoch rev: 11226
Checksum: 317
Satellite: UWE-1
Catalog number: 28892
Epoch time: 07339.60035894
Element set: 0915
Inclination: 098.1129 deg
RA of node: 232.6519 deg
Eccentricity: 0.0016577
Arg of perigee: 299.4597 deg
Mean anomaly: 060.4950 deg
Mean motion: 14.59568474 rev/day
Decay rate: 1.05e-06 rev/day^2
Epoch rev: 11221
Checksum: 331
Satellite: OO-38
Catalog number: 26063
Epoch time: 07340.15164704
Element set: 77
Inclination: 100.2194 deg
RA of node: 014.4917 deg
Eccentricity: 0.0037196
Arg of perigee: 036.2785 deg
Mean anomaly: 324.0907 deg
Mean motion: 14.35821533 rev/day
Decay rate: -3.2e-07 rev/day^2
Epoch rev: 41172
Checksum: 276
Satellite: ISS
Catalog number: 25544
Epoch time: 07340.89565253
Element set: 471
Inclination: 051.6398 deg
RA of node: 293.4372 deg
Eccentricity: 0.0000572
Arg of perigee: 296.0454 deg
Mean anomaly: 113.9889 deg
Mean motion: 15.77092424 rev/day
Decay rate: 1.7011e-04 rev/day^2
Epoch rev: 51802
Checksum: 308
Satellite: ISS
Catalog number: 25544
Epoch time: 07340.89565253
Element set: 471
Inclination: 051.6398 deg
RA of node: 293.4372 deg
Eccentricity: 0.0000572
Arg of perigee: 296.0454 deg
Mean anomaly: 113.9889 deg
Mean motion: 15.77092424 rev/day
Decay rate: 1.7011e-04 rev/day^2
Epoch rev: 51802
Checksum: 308
Satellite: ISS
Catalog number: 25544
Epoch time: 07340.89565253
Element set: 471
Inclination: 051.6398 deg
RA of node: 293.4372 deg
Eccentricity: 0.0000572
Arg of perigee: 296.0454 deg
Mean anomaly: 113.9889 deg
Mean motion: 15.77092424 rev/day
Decay rate: 1.7011e-04 rev/day^2
Epoch rev: 51802
Checksum: 308
